Theta_e
305 305 305 305 304 303 299 294 290 301 299 290 285 285 290 296 294 296 293 290 288 287 287 285 285 286 289 294 292 286 287 282 279 283 289 289 285 283 282 275 276 278 277 279
305 305 305 305 304 303 296 291 292 301 297 281 282 286 290 293 293 292 291 290 290 289 286 283 287 289 292 293 290 288 288 282 277 279 281 286 283 285 284 284 282 279 277 279
305 305 305 305 304 303 296 290 285 288 289 288 285 285 286 289 295 293 292 290 290 286 284 286 285 286 292 292 291 297 294 284 282 277 280 281 281 285 287 286 280 280 281 282
304 304 304 304 303 303 294 289 285 286 280 282 284 285 287 287 288 291 289 287 287 285 281 283 283 286 287 290 293 290 287 281 284 286 287 287 286 286 287 285 285 282 284 284
304 303 304 304 303 302 293 287 285 286 283 286 284 286 285 286 288 287 286 284 287 285 282 284 283 285 283 284 288 286 290 282 284 283 287 286 284 286 287 287 287 287 287 286
303 303 303 303 304 298 289 291 291 290 286 283 282 282 286 287 287 289 290 287 285 284 286 288 288 288 289 288 286 285 284 282 282 278 284 284 280 285 286 287 288 288 283 288
303 303 303 303 303 298 292 291 289 287 283 285 283 287 287 286 287 285 288 288 284 289 291 290 289 288 289 289 288 290 283 284 284 280 283 275 284 289 292 289 290 290 290 291
303 303 302 303 303 302 292 291 289 286 283 287 286 287 286 288 287 285 287 289 290 290 287 283 282 282 283 287 288 288 289 286 283 280 277 281 285 288 289 286 287 293 291 292
303 302 302 302 302 302 292 290 290 287 285 283 289 286 286 282 281 283 286 289 290 287 284 283 278 273 282 282 288 292 290 289 284 283 276 271 282 291 294 291 283 292 293 292
303 302 302 302 302 302 293 290 291 289 285 289 287 283 282 285 282 280 282 288 285 287 286 282 279 279 286 279 281 285 285 285 281 282 279 282 289 294 295 281 282 291 293 294
303 302 302 302 302 301 295 291 292 289 285 288 289 290 285 284 283 279 282 281 285 282 279 282 283 284 283 284 286 286 284 283 280 283 280 276 296 294 286 289 293 294 295 296
303 302 302 301 302 301 300 290 293 296 290 288 290 292 292 291 290 284 283 282 282 284 277 282 280 279 279 281 280 289 279 283 279 284 281 291 295 293 295 294 293 296 297 299
303 302 302 301 302 301 300 295 296 294 287 285 283 285 289 293 292 293 282 283 287 285 293 289 288 281 285 281 279 282 286 289 284 284 288 289 291 295 297 298 298 298 299 299
303 302 301 301 302 302 301 293 292 294 290 283 282 292 290 294 293 291 292 288 288 290 292 290 288 285 290 286 283 281 288 287 285 285 288 291 293 296 297 296 298 300 299 298
303 302 301 302 302 302 297 292 292 297 288 282 283 289 291 292 292 291 290 289 286 288 288 289 287 290 289 289 287 285 288 287 285 285 291 291 292 296 298 297 298 297 297 296
303 302 301 301 301 301 292 286 292 293 295 288 283 287 289 291 292 292 288 288 286 289 289 290 292 293 290 286 285 290 293 295 295 292 297 297 297 298 299 295 294 295 296 295
302 301 301 301 301 297 289 285 292 298 297 288 283 282 288 291 291 290 296 291 291 291 291 291 289 291 292 287 285 291 291 292 295 299 299 296 296 293 296 295 296 295 294 294
301 301 301 301 302 300 293 296 300 299 293 290 284 281 284 290 286 285 290 291 294 295 293 294 291 293 291 286 289 289 290 292 295 297 300 299 297 297 296 296 292 290 289 291
299 300 302 298 295 291 294 304 304 298 293 287 286 282 280 289 286 286 288 295 290 295 291 291 291 287 284 287 286 288 291 292 293 296 298 296 295 294 295 290 290 288 289 290
300 297 293 292 294 300 302 295 294 293 293 292 285 289 282 286 284 284 286 288 286 286 291 294 287 287 289 290 290 292 293 298 300 294 292 293 292 293 291 287 290 290 290 291
290 286 287 291 297 293 287 283 288 289 286 289 288 287 282 287 282 284 290 288 285 284 288 287 286 283 286 290 290 292 295 296 300 296 296 296 294 293 289 289 289 289 290 292
290 290 293 292 290 287 283 281 288 286 282 288 285 284 286 285 288 290 289 287 289 285 292 286 282 285 288 289 290 292 293 295 298 297 296 295 295 293 288 288 288 290 291 293
295 291 289 287 286 279 281 279 280 278 281 285 285 282 281 283 289 288 286 286 285 291 283 283 284 286 289 289 290 291 293 295 298 297 297 295 295 295 292 290 290 291 291 292
289 288 280 282 282 283 281 280 280 283 283 283 282 280 280 282 283 286 283 288 286 279 275 278 284 285 288 288 290 290 291 293 295 298 296 295 294 294 292 291 289 291 290 292
288 288 279 281 285 283 283 283 282 285 284 283 282 282 285 285 285 282 277 275 273 276 274 279 285 288 287 287 289 289 291 293 295 297 294 294 293 293 292 291 292 292 292 291
289 286 283 283 282 281 282 282 283 286 284 284 284 282 279 276 277 275 276 268 271 273 280 286 286 285 286 287 289 290 292 293 295 294 294 294 293 293 293 293 293 292 292 290
286 284 285 283 282 282 283 284 285 287 284 282 282 279 280 280 273 276 278 269 276 284 283 284 286 285 286 288 289 290 292 293 295 294 293 293 294 294 293 291 293 293 293 292
Wind_Speed
21 23 24 26 26 28 7 2 2 3 3 5 1 1 1 4 5 4 4 2 6 6 5 5 6 7 7 5 6 5 3 4 4 10 8 4 5 6 6 5 5 5 3 17
20 21 22 24 24 22 2 2 3 4 4 2 3 5 5 4 3 3 4 3 1 1 4 4 6 5 2 6 5 6 5 2 3 6 3 4 3 5 5 3 1 9 8 14
19 21 22 23 24 20 3 3 5 6 6 1 3 3 4 4 3 2 3 3 2 2 2 5 5 2 2 3 4 5 6 7 8 10 7 4 8 14 10 8 6 9 19 27
19 20 22 23 25 18 3 4 0 2 5 3 2 2 3 3 4 3 3 2 2 2 4 4 6 5 3 4 7 5 6 8 9 13 13 11 15 18 18 16 20 15 26 19
16 18 21 22 25 16 5 3 3 3 3 2 3 4 4 2 3 2 5 4 3 3 5 8 16 10 3 7 5 4 4 5 4 5 7 12 20 22 20 20 20 19 25 25
14 15 17 18 19 11 3 2 1 2 2 3 1 4 4 2 2 7 8 4 6 8 12 9 10 11 10 10 7 5 5 3 3 10 7 7 11 18 13 7 6 6 7 16
12 13 14 15 14 8 2 0 1 2 4 2 5 3 3 11 8 7 8 9 5 6 8 9 9 13 18 16 20 13 7 6 4 5 2 6 7 3 5 9 9 7 9 12
10 10 11 12 13 7 2 0 2 2 4 4 10 8 5 6 5 7 7 6 5 7 5 4 7 5 3 4 6 14 15 8 3 4 4 8 8 3 1 4 7 3 10 11
8 8 9 10 11 9 3 1 2 2 2 5 3 3 3 4 4 6 4 6 6 2 1 2 3 3 3 4 2 5 7 10 3 2 3 5 7 1 3 2 10 2 4 7
8 8 7 8 9 10 2 2 2 2 3 5 4 5 4 3 1 3 5 6 7 1 1 2 3 4 4 3 3 2 5 4 9 7 5 7 6 2 1 2 6 5 2 6
8 8 8 7 8 9 2 3 3 3 3 9 6 3 4 1 3 3 4 6 1 3 2 2 2 3 3 4 2 5 1 1 3 3 5 7 4 1 5 5 10 10 14 18
8 8 8 8 7 8 6 3 2 2 4 8 3 13 17 16 14 5 3 4 1 4 2 1 1 3 3 3 3 3 2 5 3 7 7 6 4 8 13 8 12 10 14 17
9 9 8 8 8 9 5 3 3 1 3 6 4 6 3 4 13 12 4 3 6 3 3 1 2 4 2 3 4 2 4 1 4 5 6 10 10 11 11 12 15 19 15 16
9 10 8 9 10 10 8 2 2 2 2 4 8 3 9 5 6 10 15 4 1 2 3 2 3 3 3 3 4 3 6 3 5 7 10 12 15 14 13 20 17 16 15 15
10 10 9 10 9 9 4 3 4 5 2 3 7 13 5 5 5 9 9 12 5 1 2 3 3 3 3 3 3 4 3 6 3 5 16 18 18 18 17 16 16 15 14 15
11 11 10 10 9 5 2 3 0 4 3 2 5 5 6 6 6 6 5 7 3 3 4 3 4 3 2 3 3 4 6 7 12 11 14 19 22 20 10 14 18 20 14 15
11 11 11 10 8 2 3 3 1 6 3 2 5 5 5 5 5 3 2 4 3 3 3 3 3 4 4 2 3 14 21 21 22 20 13 13 8 10 15 18 20 15 17 16
10 14 14 12 10 5 5 4 12 5 1 1 3 6 6 5 4 4 1 2 3 4 3 2 1 1 1 2 16 21 21 21 19 17 20 15 11 18 20 12 17 17 14 15
12 16 12 3 2 3 3 3 7 5 2 2 1 3 5 4 3 3 4 2 2 1 2 2 3 1 4 11 15 20 22 16 21 21 17 14 18 22 15 16 14 14 13 16
13 3 2 3 3 4 6 1 3 3 2 2 3 2 5 1 2 4 3 1 2 2 1 3 1 3 6 10 16 14 19 21 17 14 15 19 22 20 14 14 12 13 14 15
2 3 2 1 4 2 1 2 2 2 2 3 4 5 4 2 2 3 2 2 3 2 2 1 2 3 15 21 23 20 20 21 20 9 12 15 19 16 16 14 14 11 13 14
2 2 1 0 2 1 2 3 2 4 4 3 4 5 5 4 2 3 3 3 2 2 5 2 3 4 15 18 22 22 21 21 21 11 14 17 18 14 13 11 12 13 14 12
1 2 2 2 2 2 4 4 2 1 2 3 2 4 1 4 2 3 2 4 4 4 4 3 2 10 14 19 18 21 22 22 22 17 15 16 17 15 13 14 14 13 11 12
3 4 2 5 4 4 4 4 4 4 3 3 1 2 1 2 4 2 2 3 2 3 4 4 6 16 17 20 18 19 23 22 22 19 17 17 17 16 13 14 13 11 13 13
3 3 4 5 2 0 2 2 1 2 1 1 2 1 1 3 1 3 3 6 4 3 2 4 10 13 16 18 19 20 20 19 18 16 15 16 16 14 15 14 13 13 11 13
2 3 2 1 3 1 1 1 2 1 1 1 2 2 4 4 2 5 4 4 2 4 6 7 11 16 16 16 18 18 18 17 16 12 13 13 14 14 13 13 13 13 14 15
3 3 2 2 2 3 3 2 2 0 2 2 2 4 3 3 4 3 2 3 3 6 8 7 13 14 16 16 16 17 18 17 16 11 12 12 12 11 13 15 14 12 13 13
Wind_Direction
347 350 349 349 352 348 38 13 14 311 19 47 50 160 281 289 276 7 310 237 216 208 210 230 227 226 216 148 145 183 188 155 246 236 247 211 167 200 166 163 237 224 229 267
348 348 350 351 353 359 348 39 282 325 59 83 333 314 297 267 289 334 323 306 32 38 225 262 215 230 179 144 138 169 184 215 304 308 23 6 176 193 191 182 246 233 260 267
351 349 348 351 352 356 79 50 356 332 38 20 100 349 266 282 321 250 307 273 93 359 278 233 279 253 242 183 175 248 177 192 193 234 234 177 269 267 246 220 246 277 243 275
352 352 352 350 351 353 96 25 1 176 305 337 345 232 276 282 288 1 303 290 287 229 269 289 251 249 260 258 277 271 181 240 212 246 254 259 265 270 268 251 255 248 277 271
350 353 354 354 351 348 71 69 26 358 271 295 287 223 248 253 348 313 283 236 304 256 228 223 274 282 243 233 284 197 179 258 192 255 234 256 268 266 258 254 258 253 259 268
348 352 356 359 0 8 63 336 1 109 279 324 14 240 265 227 53 253 236 337 323 282 265 244 247 234 234 235 207 214 181 194 302 273 238 272 272 252 240 214 205 211 245 253
344 348 354 358 7 42 108 203 123 89 273 234 220 277 305 278 269 247 295 297 251 254 335 292 274 247 246 235 235 217 205 196 194 257 254 238 239 284 229 240 252 242 271 278
336 343 349 351 350 19 46 290 120 132 267 265 291 254 236 283 270 265 240 263 240 311 301 322 314 317 303 223 216 214 211 211 235 238 210 298 293 278 186 204 280 257 267 287
326 332 340 342 342 348 73 273 150 125 281 246 278 310 276 287 297 318 271 308 295 276 124 266 280 271 296 329 173 54 173 202 210 214 247 242 243 259 131 168 289 323 202 267
314 318 328 335 333 331 111 266 218 105 260 268 171 213 233 186 219 257 300 328 325 23 216 244 241 257 310 313 303 194 139 168 220 241 257 275 264 176 79 206 257 353 237 238
300 304 315 323 322 319 358 262 196 154 257 279 245 218 216 252 172 191 280 351 275 350 16 330 326 308 352 291 318 326 313 253 208 211 229 268 177 87 187 237 303 309 306 300
281 288 298 306 311 306 321 271 200 190 236 264 227 254 243 232 234 155 237 218 229 221 67 325 315 310 322 281 288 283 302 178 218 198 232 270 229 246 280 276 271 280 298 291
274 282 291 299 299 292 276 261 299 273 292 297 333 253 261 208 223 209 181 264 202 242 111 291 250 257 258 281 261 301 301 212 237 345 251 263 283 280 289 295 290 297 290 282
273 278 288 291 291 290 290 221 212 179 274 292 281 308 294 236 190 190 212 211 341 167 150 222 245 240 187 264 269 221 262 298 256 256 279 310 276 273 274 285 290 291 287 280
269 276 285 289 296 299 293 223 218 202 163 286 287 309 260 275 239 223 202 211 203 250 246 236 246 238 237 243 238 243 213 233 270 275 291 284 279 287 302 296 292 282 278 282
270 278 289 291 293 304 22 320 216 172 171 285 293 278 286 304 262 260 176 183 165 199 191 220 218 218 144 262 250 237 265 279 261 269 279 290 284 285 286 300 300 294 283 293
280 289 290 285 280 157 208 206 215 147 126 257 293 297 282 309 313 325 112 136 181 158 250 242 205 202 189 248 274 337 324 314 312 301 291 292 265 295 309 309 310 326 306 293
294 293 293 288 262 231 265 248 208 158 329 261 289 283 332 13 308 320 5 172 205 195 240 232 229 101 316 285 332 320 315 315 308 318 314 293 294 310 315 336 323 315 301 296
295 303 301 95 99 174 239 151 145 155 213 300 299 302 291 356 286 270 318 278 260 116 244 220 97 91 47 315 307 308 312 305 293 301 305 317 322 315 327 324 311 308 306 306
298 278 191 204 186 313 98 20 166 191 197 210 252 259 265 39 324 301 319 21 284 268 217 84 88 105 355 316 324 318 328 325 321 316 323 328 326 323 335 319 307 320 318 317
191 196 213 19 331 110 86 187 231 151 231 203 239 234 253 265 210 272 240 297 268 269 64 320 88 14 342 339 333 328 333 334 335 321 323 338 323 336 329 331 328 322 320 330
181 136 84 25 147 118 189 193 164 210 229 207 217 243 213 283 244 267 284 295 255 313 346 48 49 360 326 336 331 330 335 336 328 330 336 339 329 346 332 326 323 340 338 346
119 190 162 135 166 163 204 188 211 279 218 231 246 307 290 339 350 303 317 300 9 315 17 39 60 331 327 340 337 333 335 338 341 343 346 338 337 344 351 343 349 349 357 4
199 167 176 196 191 235 185 170 189 229 194 280 206 263 0 335 6 318 322 344 326 51 27 357 343 328 341 333 331 336 334 334 336 338 346 344 346 354 3 8 355 355 1 14
209 164 215 204 227 132 159 150 50 248 140 71 81 38 80 14 6 12 13 16 34 35 358 286 320 340 329 328 330 331 331 335 335 342 351 349 349 2 5 6 7 9 14 25
218 221 241 191 88 27 48 197 257 74 95 91 57 79 60 16 41 45 24 72 1 291 311 317 329 331 323 325 328 327 325 331 335 345 349 351 356 354 4 10 8 17 25 26
207 240 188 152 123 171 195 165 245 89 82 90 79 65 57 28 54 51 80 165 242 323 320 316 322 324 318 327 327 327 330 335 336 343 352 353 354 1 12 6 2 16 24 25